Regional Weather Roundup
Issued by NWS Memphis, TN

Home | Current Version | Previous Version | Text Only | Print | Product List | Glossary On
Versions: 1 2 3 4 5 6 7 8 9 10 11 12 13 14 15 16 17 18 19 20 21 22 23 24 25 26 27 28 29 30 31 32 33 34 35 36 37 38 39 40 41 42 43 44 45 46 47 48 49 50
000
ASUS44 KMEG 231810
RWRMEG
MEMPHIS CWA HOURLY WEATHER ROUNDUP
NATIONAL WEATHER SERVICE MEMPHIS TN
100 PM CDT WED AUG 23 2017

...WEST TENNESSEE...

CITY           SKY/WX    TMP DP  RH WIND       PRES   REMARKS
MEMPHIS INTL   CLOUDY    83  69  62 N12       30.02F
6HR MIN TEMP:  76; 6HR MAX TEMP:  85;

NWS MEMPHIS      N/A     81 N/A N/A MISG        N/A
JACKSON        CLOUDY    83  65  54 N8        30.04F
6HR MIN TEMP:  72; 6HR MAX TEMP:  83;

COVINGTON      SUNNY     81  64  57 NE10      30.04F
SOMERVILLE     MOSUNNY   82  66  57 N8G15     30.02F
BOLIVAR        MOSUNNY   82  68  61 VRB6      30.02F
LEXINGTON      MOSUNNY   81  64  57 NW8       30.03F
SELMER         PTSUNNY   81  68  65 NE7G16    30.02F
SAVANNAH       MOSUNNY   82  70  65 NE10      30.01F
DYERSBURG      PTSUNNY   80  62  54 N9        30.05F
6HR MIN TEMP:  70; 6HR MAX TEMP:  81;

PARIS          SUNNY     79  57  47 VRB8      30.04F
HUNTINGDON     SUNNY     79  61  53 NW5G12    30.04F


...EASTERN ARKANSAS...

CITY           SKY/WX    TMP DP  RH WIND       PRES   REMARKS
JONESBORO      CLOUDY    79  66  64 NE9       30.05F
6HR MIN TEMP:  71; 6HR MAX TEMP:  79;

WEST MEMPHIS   CLOUDY    82  69  64 E10       30.02S
6HR MIN TEMP:  73; 6HR MAX TEMP:  84;

NEWPORT        CLOUDY    76  64  66 NE10      30.07F
6HR MIN TEMP:  70; 6HR MAX TEMP:  77;

WALNUT RIDGE   CLOUDY    79  63  57 NE6       30.07F
6HR MIN TEMP:  68; 6HR MAX TEMP:  79;

BLYTHEVILLE    CLOUDY    82  64  54 NE9       30.05F
6HR MIN TEMP:  70; 6HR MAX TEMP:  82;

NW BLYTHEVILLE PTSUNNY   82  59  44 N8        30.05F
SEARCY         CLOUDY    79  69  71 NE9       30.06F
6HR MIN TEMP:  74; 6HR MAX TEMP:  80;

PINE BLUFF     CLOUDY    85  71  63 N8        30.01F HX  90
6HR MIN TEMP:  75; 6HR MAX TEMP:  86;

MONTICELLO     MOSUNNY   87  72  60 NE8       30.00F HX  93
6HR MIN TEMP:  76; 6HR MAX TEMP:  88;



...NORTH MISSISSIPPI...

CITY           SKY/WX    TMP DP  RH WIND       PRES   REMARKS
TUPELO         PTSUNNY   86  67  52 NE9       30.00F
6HR MIN TEMP:  73; 6HR MAX TEMP:  86;

OXFORD         MOSUNNY   82  68  61 NE8       30.04S
BATESVILLE     CLOUDY    83  70  66 NE3       30.02F
6HR MIN TEMP:  72; 6HR MAX TEMP:  83;

OLIVE BRANCH   CLOUDY   N/A N/A N/A NE5       30.02F
TUNICA           N/A     81  72  74 E3        30.03S
CLARKSDALE       N/A     84  75  74 NE9       30.02S HX  92
GREENWOOD      MOSUNNY   88  73  61 VRB5      29.98F HX  95
6HR MIN TEMP:  71; 6HR MAX TEMP:  89;

COLUMBUS       MOSUNNY   86  75  69 N5        29.99F HX  95
6HR MIN TEMP:  74; 6HR MAX TEMP:  87;

STARKVILLE     MOSUNNY   86  70  58 NE6       30.00F HX  90
GOLDEN TRIANGL MOSUNNY   88  70  55 N9        29.96F HX  92


...SOUTHEAST MISSOURI...

CITY           SKY/WX    TMP DP  RH WIND       PRES   REMARKS
KENNETT        CLOUDY    81  61  50 NE12      30.05F
MALDEN         PTSUNNY   81  55  41 N9        30.07F
WEST PLAINS    SUNNY     76  56  49 VRB3      30.12F
6HR MIN TEMP:  63; 6HR MAX TEMP:  77;

POPLAR BLUFF   MOSUNNY   79  56  45 N12       30.06F
6HR MIN TEMP:  64; 6HR MAX TEMP:  80;

CAPE GIRARDEAU MOSUNNY   79  54  41 CALM      30.07F
6HR MIN TEMP:  60; 6HR MAX TEMP:  79;



...NORTHWEST ALABAMA...

CITY           SKY/WX    TMP DP  RH WIND       PRES   REMARKS
MUSCLE SHOALS  PTSUNNY   83  67  58 N7        30.02F
6HR MIN TEMP:  72; 6HR MAX TEMP:  85;



...MIDDLE TENNESSEE...

CITY           SKY/WX    TMP DP  RH WIND       PRES   REMARKS
NASHVILLE      PTSUNNY   82  57  42 NW10      30.03F
6HR MIN TEMP:  71; 6HR MAX TEMP:  83;

CLARKSVILLE    SUNNY     79  56  45 N9        30.04F
6HR MIN TEMP:  67; 6HR MAX TEMP:  80;

COLUMBIA       MOSUNNY   81  63  54 N7        30.01F


...WESTERN KENTUCKY...

CITY           SKY/WX    TMP DP  RH WIND       PRES   REMARKS
PADUCAH        MOSUNNY   79  55  43 CALM      30.05F
6HR MIN TEMP:  62; 6HR MAX TEMP:  80;

FORT CAMPBELL  MOSUNNY   78  57  48 W8        30.04F
6HR MIN TEMP:  66; 6HR MAX TEMP:  78; 6HR PCP: TRACE;



...CENTRAL ARKANSAS...

CITY           SKY/WX    TMP DP  RH WIND       PRES   REMARKS
LITTLE ROCK    CLOUDY    81  72  74 NE9       30.03F
6HR MIN TEMP:  73; 6HR MAX TEMP:  82; 6HR PCP: TRACE;



SKY/WX REPORTED AS FAIR MEANS FEW OR NO CLOUDS BELOW
12 THOUSAND FEET.




USA.gov is the U.S. government's official web portal to all federal, state and local government web resources and services.